NJE521 EGKB-LFPB

Flight info

Callsign NJE521
Flight time 0h 58m
Altitude 25000
Route DET M604 LYD UM189 WAFFU UM605 PETAX UZ296 VELOL
Aircraft A319/M-SDE3FGHIRWY/LB1

Departure

Time 2026-04-17 08:08
Airport London Biggin Hill Airport (EGKB)

Arrival

Time 2026-04-17 09:06
Airport Paris-Le Bourget International Airport (LFPB)
Time Latitude Longitude Altitude Speed Heading
2026-04-17 07:34 51.33322 0.03081 566 ft 0 kts 204°
2026-04-17 07:54 51.33312 0.03074 568 ft 4 kts 202°
2026-04-17 07:54 51.33291 0.03067 567 ft 0 kts 187°
2026-04-17 07:58 51.33290 0.03067 567 ft 0 kts 187°
2026-04-17 07:58 51.33277 0.03073 563 ft 4 kts 150°
2026-04-17 07:58 51.33300 0.03131 566 ft 7 kts 31°
2026-04-17 07:59 51.33347 0.03167 563 ft 8 kts 25°
2026-04-17 07:59 51.33379 0.03227 556 ft 6 kts 73°
2026-04-17 07:59 51.33385 0.03294 554 ft 6 kts 73°
2026-04-17 07:59 51.33436 0.03344 549 ft 11 kts 23°
2026-04-17 08:00 51.33494 0.03390 547 ft 9 kts 26°
2026-04-17 08:00 51.33557 0.03440 541 ft 9 kts 26°
2026-04-17 08:00 51.33622 0.03488 537 ft 10 kts 25°
2026-04-17 08:00 51.33694 0.03543 532 ft 12 kts 26°
2026-04-17 08:01 51.33759 0.03593 528 ft 9 kts 25°
2026-04-17 08:01 51.33781 0.03610 526 ft 0 kts 26°
2026-04-17 08:05 51.33788 0.03615 526 ft 4 kts 26°
2026-04-17 08:05 51.33826 0.03645 523 ft 7 kts 32°
2026-04-17 08:06 51.33842 0.03709 523 ft 6 kts 90°
2026-04-17 08:06 51.33829 0.03764 525 ft 5 kts 119°
2026-04-17 08:06 51.33806 0.03787 526 ft 2 kts 176°
2026-04-17 08:06 51.33800 0.03781 527 ft 1 kts 211°
2026-04-17 08:07 51.33796 0.03778 527 ft 0 kts 206°
2026-04-17 08:07 51.33789 0.03773 528 ft 9 kts 206°
2026-04-17 08:07 51.33439 0.03502 559 ft 102 kts 206°
2026-04-17 08:07 51.32639 0.02881 873 ft 136 kts 208°
2026-04-17 08:08 51.31864 0.01987 1758 ft 141 kts 234°
2026-04-17 08:08 51.31395 0.00568 2621 ft 151 kts 235°
2026-04-17 08:08 51.30580 -0.00562 3530 ft 163 kts 210°
2026-04-17 08:08 51.29371 -0.00870 4110 ft 199 kts 172°
2026-04-17 08:09 51.28114 0.00439 4622 ft 240 kts 135°
2026-04-17 08:09 51.27120 0.02805 5207 ft 269 kts 122°
2026-04-17 08:09 51.26279 0.05538 5756 ft 278 kts 117°
2026-04-17 08:09 51.25492 0.08379 6254 ft 281 kts 116°
2026-04-17 08:10 51.24695 0.11239 6723 ft 283 kts 117°
2026-04-17 08:10 51.23861 0.14109 7199 ft 286 kts 118°
2026-04-17 08:10 51.22987 0.16982 7660 ft 289 kts 119°
2026-04-17 08:10 51.22083 0.19871 7849 ft 292 kts 120°
2026-04-17 08:11 51.21164 0.22759 7860 ft 292 kts 120°
2026-04-17 08:11 51.20178 0.25656 8302 ft 303 kts 128°
2026-04-17 08:11 51.18726 0.27936 9622 ft 295 kts 150°
2026-04-17 08:11 51.16866 0.29240 10649 ft 298 kts 169°
2026-04-17 08:12 51.14751 0.29941 11193 ft 322 kts 173°
2026-04-17 08:12 51.12463 0.30586 11783 ft 342 kts 174°
2026-04-17 08:12 51.10094 0.31223 12717 ft 349 kts 174°
2026-04-17 08:12 51.07685 0.31875 13735 ft 353 kts 174°
2026-04-17 08:13 51.05247 0.32552 14651 ft 358 kts 174°
2026-04-17 08:13 51.02778 0.33253 15538 ft 363 kts 173°
2026-04-17 08:13 51.00272 0.33976 16422 ft 368 kts 173°
2026-04-17 08:14 50.95154 0.35452 18146 ft 379 kts 174°
2026-04-17 08:14 50.92535 0.36205 18938 ft 384 kts 174°
2026-04-17 08:14 50.89923 0.36959 19711 ft 388 kts 174°
2026-04-17 08:14 50.87253 0.37726 20502 ft 392 kts 174°
2026-04-17 08:15 50.84557 0.38496 21261 ft 396 kts 174°
2026-04-17 08:15 50.81816 0.39275 22010 ft 400 kts 174°
2026-04-17 08:15 50.79061 0.40055 22706 ft 404 kts 174°
2026-04-17 08:15 50.76281 0.40845 23394 ft 407 kts 174°
2026-04-17 08:16 50.73476 0.41644 24002 ft 411 kts 174°
2026-04-17 08:16 50.70651 0.42448 24551 ft 414 kts 175°
2026-04-17 08:16 50.67795 0.43259 25025 ft 417 kts 175°
2026-04-17 08:16 50.64975 0.44061 25172 ft 418 kts 175°
2026-04-17 08:17 50.62030 0.44894 25206 ft 430 kts 174°
2026-04-17 08:17 50.59108 0.45718 25216 ft 434 kts 174°
2026-04-17 08:17 50.56132 0.46557 25197 ft 435 kts 174°
2026-04-17 08:17 50.53148 0.47399 25217 ft 436 kts 174°
2026-04-17 08:18 50.50169 0.48352 25217 ft 439 kts 169°
2026-04-17 08:18 50.47280 0.50000 25216 ft 446 kts 160°
2026-04-17 08:18 50.44566 0.52426 25218 ft 452 kts 150°
2026-04-17 08:18 50.42070 0.55466 25222 ft 455 kts 146°
2026-04-17 08:19 50.39600 0.58576 25224 ft 455 kts 146°
2026-04-17 08:19 50.37130 0.61676 25223 ft 455 kts 146°
2026-04-17 08:19 50.34657 0.64782 25221 ft 455 kts 146°
2026-04-17 08:19 50.32185 0.67893 25001 ft 456 kts 146°
2026-04-17 08:20 50.29722 0.70992 24286 ft 453 kts 146°
2026-04-17 08:20 50.27264 0.74068 23093 ft 452 kts 146°
2026-04-17 08:20 50.24817 0.77118 22145 ft 447 kts 146°
2026-04-17 08:20 50.22409 0.80128 21249 ft 441 kts 145°
2026-04-17 08:21 50.20033 0.83102 20375 ft 435 kts 145°
2026-04-17 08:21 50.17818 0.86321 19518 ft 435 kts 136°
2026-04-17 08:21 50.15826 0.89853 18711 ft 432 kts 134°
2026-04-17 08:21 50.13855 0.93359 17851 ft 428 kts 134°
2026-04-17 08:22 50.11910 0.96822 17112 ft 422 kts 134°
2026-04-17 08:22 50.09988 1.00238 16402 ft 417 kts 134°
2026-04-17 08:22 50.08080 1.03616 15719 ft 413 kts 134°
2026-04-17 08:22 50.06200 1.06944 15257 ft 403 kts 134°
2026-04-17 08:23 50.04395 1.10144 15133 ft 383 kts 134°
2026-04-17 08:23 50.02681 1.13183 15011 ft 365 kts 134°
2026-04-17 08:23 50.01040 1.16083 14891 ft 349 kts 134°
2026-04-17 08:23 49.99467 1.18854 14774 ft 335 kts 134°
2026-04-17 08:24 49.97949 1.21516 14595 ft 325 kts 135°
2026-04-17 08:24 49.96459 1.24123 14402 ft 319 kts 135°
2026-04-17 08:24 49.94984 1.26700 14321 ft 318 kts 135°
2026-04-17 08:24 49.93384 1.29040 14193 ft 315 kts 146°
2026-04-17 08:25 49.91569 1.30845 13731 ft 314 kts 152°
2026-04-17 08:25 49.89701 1.32593 13305 ft 312 kts 152°
2026-04-17 08:25 49.87850 1.34331 12903 ft 310 kts 152°
2026-04-17 08:25 49.85985 1.36079 12497 ft 308 kts 152°
2026-04-17 08:26 49.84181 1.37772 12109 ft 306 kts 152°
2026-04-17 08:26 49.82370 1.39473 11718 ft 303 kts 152°
2026-04-17 08:26 49.80578 1.41157 11329 ft 300 kts 152°
2026-04-17 08:26 49.78801 1.42826 10943 ft 298 kts 152°
2026-04-17 08:27 49.77039 1.44479 10565 ft 294 kts 152°
2026-04-17 08:27 49.75292 1.46120 10183 ft 291 kts 152°
2026-04-17 08:27 49.73569 1.47734 9769 ft 289 kts 151°
2026-04-17 08:27 49.71851 1.49336 9397 ft 287 kts 153°
2026-04-17 08:28 49.70039 1.50529 9118 ft 280 kts 167°
2026-04-17 08:28 49.68150 1.51295 8997 ft 281 kts 168°
2026-04-17 08:28 49.66256 1.52072 8854 ft 281 kts 168°
2026-04-17 08:28 49.64368 1.52854 8702 ft 280 kts 168°
2026-04-17 08:29 49.62490 1.53635 8553 ft 279 kts 168°
2026-04-17 08:29 49.60639 1.54405 8406 ft 279 kts 168°
2026-04-17 08:29 49.58747 1.55190 8253 ft 278 kts 168°
2026-04-17 08:29 49.56885 1.55962 8104 ft 277 kts 168°
2026-04-17 08:30 49.55050 1.56721 7955 ft 276 kts 168°
2026-04-17 08:30 49.53194 1.57486 7810 ft 275 kts 168°
2026-04-17 08:30 49.51346 1.58249 7656 ft 275 kts 168°
2026-04-17 08:30 49.49495 1.59016 7514 ft 275 kts 168°
2026-04-17 08:31 49.47728 1.60166 7369 ft 279 kts 149°
2026-04-17 08:31 49.46322 1.62243 7249 ft 284 kts 127°
2026-04-17 08:31 49.45505 1.65013 7240 ft 288 kts 105°
2026-04-17 08:31 49.45298 1.68083 7244 ft 290 kts 94°
2026-04-17 08:32 49.45197 1.71182 7245 ft 290 kts 94°
2026-04-17 08:32 49.45095 1.74279 7244 ft 290 kts 94°
2026-04-17 08:32 49.44990 1.77379 7193 ft 291 kts 94°
2026-04-17 08:32 49.44886 1.80471 6988 ft 288 kts 94°
2026-04-17 08:33 49.44784 1.83535 6795 ft 287 kts 94°
2026-04-17 08:33 49.44679 1.86594 6599 ft 286 kts 94°
2026-04-17 08:33 49.44572 1.89637 6390 ft 285 kts 94°
2026-04-17 08:33 49.44465 1.92673 6182 ft 284 kts 94°
2026-04-17 08:34 49.44357 1.95695 5975 ft 283 kts 94°
2026-04-17 08:34 49.44249 1.98705 5773 ft 281 kts 94°
2026-04-17 08:34 49.44140 2.01708 5594 ft 280 kts 94°
2026-04-17 08:34 49.44029 2.04690 5413 ft 279 kts 94°
2026-04-17 08:35 49.43916 2.07663 5261 ft 278 kts 94°
2026-04-17 08:35 49.43806 2.10621 5111 ft 277 kts 94°
2026-04-17 08:35 49.43697 2.13546 4959 ft 276 kts 94°
2026-04-17 08:35 49.43403 2.16447 4800 ft 274 kts 107°
2026-04-17 08:36 49.42831 2.19234 4651 ft 273 kts 109°
2026-04-17 08:36 49.42264 2.22011 4490 ft 272 kts 109°
2026-04-17 08:36 49.41704 2.24778 4326 ft 270 kts 108°
2026-04-17 08:36 49.41148 2.27526 4174 ft 269 kts 108°
2026-04-17 08:37 49.40594 2.30266 4021 ft 268 kts 108°
2026-04-17 08:37 49.40039 2.32996 3868 ft 267 kts 108°
2026-04-17 08:37 49.39483 2.35715 3715 ft 266 kts 108°
2026-04-17 08:37 49.38930 2.38424 3569 ft 265 kts 108°
2026-04-17 08:38 49.38380 2.41122 3416 ft 265 kts 108°
2026-04-17 08:38 49.37832 2.43822 3252 ft 264 kts 108°
2026-04-17 08:38 49.37286 2.46503 3114 ft 263 kts 108°
2026-04-17 08:38 49.36732 2.49180 3004 ft 263 kts 109°
2026-04-17 08:39 49.36171 2.51850 3013 ft 263 kts 109°
2026-04-17 08:39 49.35605 2.54519 3008 ft 263 kts 109°
2026-04-17 08:39 49.35044 2.57152 3014 ft 263 kts 109°
2026-04-17 08:39 49.34475 2.59814 3015 ft 263 kts 109°
2026-04-17 08:40 49.33798 2.62403 3002 ft 261 kts 124°
2026-04-17 08:40 49.32505 2.64306 3020 ft 259 kts 148°
2026-04-17 08:40 49.30957 2.65711 3018 ft 258 kts 152°
2026-04-17 08:40 49.29390 2.67066 3017 ft 258 kts 152°
2026-04-17 08:41 49.27839 2.68396 3003 ft 248 kts 152°
2026-04-17 08:41 49.26873 2.69231 3002 ft 234 kts 152°
2026-04-17 08:41 49.25502 2.70369 3014 ft 216 kts 157°
2026-04-17 08:41 49.24116 2.71185 3015 ft 212 kts 162°
2026-04-17 08:42 49.22726 2.71929 3012 ft 211 kts 162°
2026-04-17 08:42 49.21337 2.72667 3010 ft 211 kts 162°
2026-04-17 08:42 49.19947 2.73406 3012 ft 211 kts 162°
2026-04-17 08:42 49.18571 2.74138 3011 ft 204 kts 162°
2026-04-17 08:43 49.17274 2.74834 3013 ft 192 kts 162°
2026-04-17 08:43 49.16029 2.75500 3014 ft 187 kts 162°
2026-04-17 08:43 49.14800 2.76150 3012 ft 186 kts 162°
2026-04-17 08:43 49.13579 2.76794 3011 ft 183 kts 163°
2026-04-17 08:44 49.12381 2.77215 3011 ft 174 kts 174°
2026-04-17 08:44 49.11203 2.77381 3011 ft 170 kts 177°
2026-04-17 08:44 49.10023 2.77516 3011 ft 170 kts 177°
2026-04-17 08:44 49.08845 2.77648 3009 ft 169 kts 177°
2026-04-17 08:45 49.07669 2.77775 3010 ft 170 kts 178°
2026-04-17 08:45 49.06490 2.77904 3009 ft 170 kts 177°
2026-04-17 08:45 49.05329 2.77717 3011 ft 168 kts 199°
2026-04-17 08:45 49.04217 2.77155 3011 ft 169 kts 199°
2026-04-17 08:46 49.03096 2.76603 3011 ft 170 kts 198°
2026-04-17 08:46 49.01973 2.76053 3011 ft 169 kts 198°
2026-04-17 08:46 49.00853 2.75503 3012 ft 169 kts 199°
2026-04-17 08:46 48.99742 2.74945 3051 ft 166 kts 201°
2026-04-17 08:47 48.98814 2.74058 3010 ft 154 kts 223°
2026-04-17 08:47 48.98202 2.72797 3010 ft 149 kts 244°
2026-04-17 08:47 48.97925 2.71291 3010 ft 148 kts 264°
2026-04-17 08:47 48.97843 2.69729 3012 ft 148 kts 265°
2026-04-17 08:48 48.97761 2.68165 3012 ft 148 kts 265°
2026-04-17 08:48 48.97681 2.66627 2952 ft 140 kts 265°
2026-04-17 08:48 48.97608 2.65229 2823 ft 127 kts 264°
2026-04-17 08:48 48.97538 2.63909 2675 ft 123 kts 264°
2026-04-17 08:49 48.97470 2.62618 2520 ft 122 kts 264°
2026-04-17 08:49 48.97403 2.61340 2364 ft 121 kts 264°
2026-04-17 08:49 48.97336 2.60069 2202 ft 120 kts 264°
2026-04-17 08:49 48.97268 2.58800 2042 ft 120 kts 264°
2026-04-17 08:50 48.97201 2.57534 1878 ft 120 kts 263°
2026-04-17 08:50 48.97134 2.56271 1713 ft 120 kts 263°
2026-04-17 08:50 48.97067 2.55010 1540 ft 119 kts 263°
2026-04-17 08:50 48.96999 2.53747 1384 ft 120 kts 264°
2026-04-17 08:51 48.96936 2.52496 1224 ft 120 kts 265°
2026-04-17 08:51 48.97155 2.51265 1086 ft 122 kts 292°
2026-04-17 08:51 48.97535 2.50110 1018 ft 122 kts 295°
2026-04-17 08:51 48.97929 2.48968 1013 ft 122 kts 296°
2026-04-17 08:52 48.98315 2.47820 1014 ft 122 kts 296°
2026-04-17 08:52 48.98592 2.46614 959 ft 122 kts 268°
2026-04-17 08:52 48.98260 2.45453 829 ft 122 kts 230°
2026-04-17 08:52 48.97609 2.44640 586 ft 122 kts 210°
2026-04-17 08:53 48.96851 2.44072 328 ft 121 kts 205°
2026-04-17 08:53 48.96057 2.43511 438 ft 138 kts 206°
2026-04-17 08:53 48.95129 2.42864 1129 ft 159 kts 204°
2026-04-17 08:53 48.94017 2.42240 1916 ft 177 kts 190°
2026-04-17 08:54 48.92797 2.42624 2734 ft 189 kts 152°
2026-04-17 08:54 48.91924 2.44100 2953 ft 191 kts 116°
2026-04-17 08:54 48.91477 2.45989 3008 ft 189 kts 108°
2026-04-17 08:54 48.91099 2.47896 3010 ft 188 kts 107°
2026-04-17 08:55 48.90831 2.49834 3010 ft 188 kts 96°
2026-04-17 08:55 48.90763 2.51796 3011 ft 188 kts 92°
2026-04-17 08:55 48.90721 2.53789 3011 ft 189 kts 92°
2026-04-17 08:55 48.90683 2.55784 3012 ft 189 kts 92°
2026-04-17 08:56 48.90642 2.57779 3012 ft 188 kts 92°
2026-04-17 08:56 48.90601 2.59767 3013 ft 188 kts 92°
2026-04-17 08:56 48.90634 2.61756 3011 ft 189 kts 88°
2026-04-17 08:56 48.90705 2.63748 3012 ft 189 kts 87°
2026-04-17 08:57 48.90779 2.65739 3011 ft 189 kts 87°
2026-04-17 08:57 48.90852 2.67725 3011 ft 188 kts 87°
2026-04-17 08:57 48.90922 2.69641 3007 ft 177 kts 87°
2026-04-17 08:57 48.90989 2.71480 3008 ft 173 kts 87°
2026-04-17 08:58 48.91064 2.73292 3011 ft 171 kts 84°
2026-04-17 08:58 48.91526 2.74934 3016 ft 171 kts 49°
2026-04-17 08:58 48.92522 2.75871 3014 ft 170 kts 12°
2026-04-17 08:58 48.93672 2.75788 3016 ft 169 kts 344°
2026-04-17 08:59 48.94809 2.75361 3013 ft 168 kts 344°
2026-04-17 08:59 48.95941 2.74910 3009 ft 168 kts 339°
2026-04-17 08:59 48.96925 2.74007 3012 ft 166 kts 316°
2026-04-17 08:59 48.97605 2.72610 3011 ft 165 kts 294°
2026-04-17 09:00 48.97882 2.70936 3010 ft 164 kts 272°
2026-04-17 09:00 48.97814 2.69203 3011 ft 163 kts 264°
2026-04-17 09:00 48.97724 2.67483 2999 ft 163 kts 264°
2026-04-17 09:00 48.97635 2.65774 2873 ft 159 kts 264°
2026-04-17 09:01 48.97551 2.64152 2702 ft 148 kts 264°
2026-04-17 09:01 48.97474 2.62679 2527 ft 131 kts 264°
2026-04-17 09:01 48.97403 2.61336 2357 ft 125 kts 264°
2026-04-17 09:01 48.97335 2.60038 2190 ft 121 kts 263°
2026-04-17 09:02 48.97267 2.58764 2032 ft 121 kts 263°
2026-04-17 09:02 48.97201 2.57511 1873 ft 120 kts 263°
2026-04-17 09:02 48.97133 2.56246 1708 ft 120 kts 263°
2026-04-17 09:02 48.97066 2.54985 1542 ft 119 kts 263°
2026-04-17 09:03 48.96999 2.53723 1380 ft 120 kts 263°
2026-04-17 09:03 48.97072 2.52464 1187 ft 122 kts 290°
2026-04-17 09:03 48.97440 2.51291 1063 ft 123 kts 296°
2026-04-17 09:03 48.97841 2.50149 930 ft 122 kts 297°
2026-04-17 09:04 48.98249 2.49024 818 ft 121 kts 297°
2026-04-17 09:04 48.98658 2.47901 715 ft 121 kts 298°
2026-04-17 09:04 48.98888 2.46691 592 ft 121 kts 266°
2026-04-17 09:04 48.98477 2.45595 553 ft 123 kts 222°
2026-04-17 09:05 48.97803 2.44806 454 ft 122 kts 214°
2026-04-17 09:05 48.97051 2.44211 312 ft 122 kts 205°
2026-04-17 09:05 48.96296 2.43690 179 ft 110 kts 208°
2026-04-17 09:05 48.95723 2.43284 161 ft 67 kts 205°
2026-04-17 09:06 48.95451 2.43094 159 ft 23 kts 205°
2026-04-17 09:06 48.95335 2.43015 160 ft 13 kts 191°
2026-04-17 09:06 48.95273 2.43111 159 ft 14 kts 113°
2026-04-17 09:06 48.95249 2.43193 156 ft 6 kts 115°
2026-04-17 09:07 48.95237 2.43231 155 ft 0 kts 114°
2026-04-17 09:07 48.95233 2.43244 154 ft 5 kts 114°
2026-04-17 09:07 48.95214 2.43308 154 ft 8 kts 114°
2026-04-17 09:07 48.95186 2.43401 153 ft 11 kts 114°
2026-04-17 09:08 48.95147 2.43526 153 ft 14 kts 115°
2026-04-17 09:08 48.95148 2.43627 153 ft 10 kts 51°
2026-04-17 09:08 48.95220 2.43688 153 ft 13 kts 28°
2026-04-17 09:08 48.95304 2.43757 153 ft 11 kts 28°
2026-04-17 09:09 48.95349 2.43820 153 ft 9 kts 75°
2026-04-17 09:09 48.95323 2.43864 152 ft 6 kts 178°
2026-04-17 09:09 48.95290 2.43882 154 ft 3 kts 122°
2026-04-17 09:09 48.95285 2.43898 154 ft 1 kts 113°
2026-04-17 09:10 48.95281 2.43912 155 ft 1 kts 114°
2026-04-17 09:10 48.95281 2.43914 155 ft 0 kts 114°